FW6905 Weather Reports


Display with metric or nautical units.
time (UTC)temp
F
wind
direction
speed
MPH
gust
MPH
rain 1hr
in
rain 24hr
in
rain mn
in
humidity
%
barometer
mb
20260906065506 77 12 6.0 11.0 0.00 0.00 0.00 41 1025.8
20260906064506 77 353 3.0 15.0 0.00 0.00 0.00 42 1025.8
20260906063506 76 348 8.0 18.0 0.00 0.00 0.00 43 1025.8
20260906063006 76 4 6.0 18.0 0.00 0.00 0.00 43 1025.8
20260906062006 76 337 7.0 17.0 0.00 0.00 0.00 42 1025.8
20260906061506 76 348 2.0 17.0 0.00 0.00 0.00 43 1025.8
20260906061006 76 337 2.0 16.0 0.00 0.00 0.00 43 1025.8
20260906060506 76 341 4.0 18.0 0.00 0.00 0.00 43 1025.8
20260906060006 76 357 4.0 18.0 0.00 0.00 0.00 43 1025.8
20260906054006 75 27 4.0 13.0 0.00 0.00 0.00 44 1025.8
20260906053006 75 323 6.0 9.0 0.00 0.00 0.00 44 1025.8
20260906052505 75 338 4.0 12.0 0.00 0.00 0.00 44 1024.8
20260906052006 75 341 5.0 12.0 0.00 0.00 0.00 43 1024.8
20260906051506 75 343 5.0 9.0 0.00 0.00 0.00 44 1024.8
20260906051006 75 334 7.0 9.0 0.00 0.00 0.00 44 1024.8
20260906050506 75 330 1.0 13.0 0.00 0.00 0.00 44 1024.8
20260906050006 75 341 4.0 13.0 0.00 0.00 0.00 43 1024.8
20260906045506 76 346 7.0 12.0 0.00 0.00 0.00 43 1024.8
20260906044506 76 339 6.0 15.0 0.00 0.00 0.00 43 1024.8
20260906044006 76 1 3.0 14.0 0.00 0.00 0.00 43 1024.8
20260906043506 76 10 4.0 12.0 0.00 0.00 0.00 43 1024.8
20260906043006 76 10 6.0 15.0 0.00 0.00 0.00 43 1024.8
20260906042505 76 16 11.0 15.0 0.00 0.00 0.00 43 1024.8
20260906042006 76 16 3.0 11.0 0.00 0.00 0.00 43 1024.8
20260906041505 76 7 4.0 8.0 0.00 0.00 0.00 43 1024.8
20260906041006 76 346 7.0 12.0 0.00 0.00 0.00 43 1023.8
20260906040506 76 12 5.0 12.0 0.00 0.00 0.00 43 1023.8
20260906040006 76 35 4.0 11.0 0.00 0.00 0.00 43 1023.8
20260906035506 76 7 5.0 12.0 0.00 0.00 0.00 43 1023.8
20260906035006 76 7 5.0 13.0 0.00 0.00 0.00 43 1023.8
20260906034506 76 32 7.0 13.0 0.00 0.00 0.00 43 1023.8
20260906034006 77 28 6.0 12.0 0.00 0.00 0.00 43 1023.8
20260906033505 77 39 4.0 12.0 0.00 0.00 0.00 43 1023.8
20260906033006 77 51 3.0 9.0 0.00 0.00 0.00 43 1023.8
20260906032006 77 28 5.0 10.0 0.00 0.00 0.00 42 1023.8
20260906031005 77 355 4.0 12.0 0.00 0.00 0.00 42 1023.8
20260906030506 77 1 7.0 13.0 0.00 0.00 0.00 42 1023.8
20260906030005 77 11 4.0 13.0 0.00 0.00 0.00 43 1023.8
20260906025506 76 342 3.0 11.0 0.00 0.00 0.00 43 1023.8
20260906024506 76 29 2.0 8.0 0.00 0.00 0.00 43 1023.8
20260906024006 76 327 6.0 8.0 0.00 0.00 0.00 43 1023.8
20260906023006 77 355 1.0 9.0 0.00 0.00 0.00 43 1023.8
20260906022506 77 289 4.0 9.0 0.00 0.00 0.00 43 1023.8
20260906022005 77 314 6.0 9.0 0.00 0.00 0.00 41 1023.8
20260906021005 77 321 6.0 7.0 0.00 0.00 0.00 41 1023.8
20260906020005 78 329 3.0 13.0 0.00 0.00 0.00 41 1023.8
20260906015506 78 355 3.0 11.0 0.00 0.00 0.00 41 1023.8
20260906015006 78 328 2.0 11.0 0.00 0.00 0.00 41 1023.8
20260906014506 78 334 4.0 14.0 0.00 0.00 0.00 40 1023.8
20260906014005 78 328 7.0 14.0 0.00 0.00 0.00 40 1023.8
20260906013506 78 315 7.0 15.0 0.00 0.00 0.00 40 1023.8
20260906013005 78 329 7.0 15.0 0.00 0.00 0.00 40 1023.8
20260906012506 78 329 4.0 10.0 0.00 0.00 0.00 41 1022.8
20260906012005 78 328 6.0 20.0 0.00 0.00 0.00 41 1022.8
20260906011005 78 345 11.0 19.0 0.00 0.00 0.00 41 1023.8
20260906010006 78 331 2.0 12.0 0.00 0.00 0.00 41 1023.8
20260906005506 78 333 3.0 12.0 0.00 0.00 0.00 41 1023.8
20260906005006 78 333 5.0 11.0 0.00 0.00 0.00 41 1023.8
20260906004505 78 342 5.0 11.0 0.00 0.00 0.00 41 1023.8
20260906004006 78 349 4.0 9.0 0.00 0.00 0.00 41 1023.8
20260906003006 78 2 3.0 7.0 0.00 0.00 0.00 41 1023.8
20260906002505 78 14 5.0 11.0 0.00 0.00 0.00 41 1023.8
20260906002006 78 14 7.0 11.0 0.00 0.00 0.00 40 1023.8
20260906001505 79 11 3.0 12.0 0.00 0.00 0.00 41 1023.8
20260906001006 79 4 4.0 12.0 0.00 0.00 0.00 40 1023.8
20260906000006 79 32 7.0 13.0 0.00 0.00 0.00 40 1023.8
20260905235505 79 23 5.0 14.0 0.00 0.00 0.00 40 1023.8
20260905235006 79 8 9.0 14.0 0.00 0.00 0.00 40 1023.8
20260905234506 79 359 4.0 8.0 0.00 0.00 0.00 40 1023.8
20260905234005 79 359 3.0 12.0 0.00 0.00 0.00 41 1023.8
20260905233506 79 7 2.0 12.0 0.00 0.00 0.00 40 1023.8
20260905233005 79 14 7.0 11.0 0.00 0.00 0.00 40 1023.8
20260905232506 79 17 6.0 11.0 0.00 0.00 0.00 40 1023.8
20260905232006 80 1 4.0 11.0 0.00 0.00 0.00 40 1023.8
20260905231005 80 7 7.0 18.0 0.00 0.00 0.00 40 1023.8
20260905230506 80 6 4.0 18.0 0.00 0.00 0.00 40 1023.8
20260905230006 80 8 2.0 12.0 0.00 0.00 0.00 40 1023.8
20260905225505 80 18 7.0 12.0 0.00 0.00 0.00 40 1022.8
20260905225006 80 13 4.0 12.0 0.00 0.00 0.00 40 1022.8
20260905224505 80 10 5.0 11.0 0.00 0.00 0.00 40 1022.8
20260905224006 80 18 11.0 12.0 0.00 0.00 0.00 40 1022.8
20260905223505 80 18 4.0 12.0 0.00 0.00 0.00 40 1022.8
20260905223006 80 26 4.0 9.0 0.00 0.00 0.00 39 1022.8
20260905222006 80 19 8.0 12.0 0.00 0.00 0.00 39 1022.8
20260905221006 80 20 8.0 14.0 0.00 0.00 0.00 39 1022.8
20260905220505 80 25 6.0 13.0 0.00 0.00 0.00 40 1022.8
20260905220012 80 25 6.0 13.0 0.00 0.00 0.00 39 1022.8
20260905215506 80 20 7.0 11.0 0.00 0.00 0.00 40 1022.8
20260905215006 80 19 4.0 11.0 0.00 0.00 0.00 40 1022.8
20260905214506 80 18 5.0 11.0 0.00 0.00 0.00 40 1022.8
20260905214006 80 13 6.0 10.0 0.00 0.00 0.00 40 1021.8
20260905213505 81 20 3.0 13.0 0.00 0.00 0.00 39 1021.8
20260905212505 81 35 6.0 9.0 0.00 0.00 0.00 39 1022.8
20260905212006 81 30 4.0 9.0 0.00 0.00 0.00 40 1022.8
20260905211506 81 20 4.0 13.0 0.00 0.00 0.00 40 1022.8
20260905211005 81 28 4.0 13.0 0.00 0.00 0.00 40 1022.8
20260905210505 81 30 6.0 12.0 0.00 0.00 0.00 40 1022.8
20260905205506 81 20 3.0 11.0 0.00 0.00 0.00 41 1021.8
20260905205005 81 33 5.0 10.0 0.00 0.00 0.00 40 1021.8
20260905204506 81 45 5.0 12.0 0.00 0.00 0.00 41 1021.8
20260905204005 80 48 9.0 12.0 0.00 0.00 0.00 42 1021.8
20260905203506 80 52 4.0 11.0 0.00 0.00 0.00 43 1021.8
20260905203005 80 50 4.0 9.0 0.00 0.00 0.00 43 1021.8
20260905202005 80 30 7.0 14.0 0.00 0.00 0.00 43 1021.8
20260905201505 80 40 5.0 13.0 0.00 0.00 0.00 43 1021.8
20260905201005 80 54 6.0 14.0 0.00 0.00 0.00 43 1021.8
20260905195505 81 39 4.0 12.0 0.00 0.00 0.00 43 1020.8
20260905195006 81 37 8.0 12.0 0.00 0.00 0.00 43 1020.8
20260905194506 81 41 4.0 11.0 0.00 0.00 0.00 43 1020.8
20260905193505 81 35 6.0 14.0 0.00 0.00 0.00 43 1021.8
20260905193006 81 39 6.0 9.0 0.00 0.00 0.00 44 1021.8
20260905192006 81 37 3.0 11.0 0.00 0.00 0.00 44 1021.8
20260905191505 81 48 3.0 9.0 0.00 0.00 0.00 44 1021.8
20260905191006 81 57 6.0 9.0 0.00 0.00 0.00 44 1021.8
20260905190505 82 53 4.0 14.0 0.00 0.00 0.00 44 1021.8
20260905190006 82 41 8.0 14.0 0.00 0.00 0.00 43 1021.8
20260905185505 82 31 6.0 12.0 0.00 0.00 0.00 43 1021.8
20260905185006 82 27 4.0 11.0 0.00 0.00 0.00 43 1021.8
20260905184006 82 20 4.0 10.0 0.00 0.00 0.00 43 1020.8
20260905183505 82 31 5.0 9.0 0.00 0.00 0.00 43 1020.8
20260905183006 82 26 4.0 8.0 0.00 0.00 0.00 43 1020.8
20260905182505 82 20 4.0 15.0 0.00 0.00 0.00 43 1020.8
20260905182006 83 24 7.0 15.0 0.00 0.00 0.00 42 1020.8
20260905181505 83 20 5.0 11.0 0.00 0.00 0.00 43 1020.8
20260905181006 83 12 6.0 11.0 0.00 0.00 0.00 42 1020.8
20260905180505 83 20 2.0 8.0 0.00 0.00 0.00 43 1020.8
20260905180006 83 34 2.0 11.0 0.00 0.00 0.00 43 1020.8
20260905175505 83 39 4.0 12.0 0.00 0.00 0.00 43 1020.8
20260905175006 83 41 6.0 13.0 0.00 0.00 0.00 43 1020.8
20260905174505 83 39 7.0 13.0 0.00 0.00 0.00 43 1020.8
20260905172505 84 23 7.0 9.0 0.00 0.00 0.00 44 1018.8
20260905172005 84 8 3.0 9.0 0.00 0.00 0.00 45 1018.8
20260905171506 84 9 3.0 11.0 0.00 0.00 0.00 45 1018.8
20260905170505 84 9 3.0 13.0 0.00 0.00 0.00 45 1019.8
20260905170005 83 13 5.0 13.0 0.00 0.00 0.00 46 1019.8
20260905165505 83 8 6.0 9.0 0.00 0.00 0.00 47 1019.8
20260905165005 83 4 2.0 8.0 0.00 0.00 0.00 48 1019.8
20260905164505 83 325 2.0 4.0 0.00 0.00 0.00 52 1019.8
20260905163505 84 282 2.0 5.0 0.00 0.00 0.00 52 1019.8
20260905163005 84 28 1.0 4.0 0.00 0.00 0.00 50 1019.8
20260905162505 85 131 0.0 3.0 0.00 0.00 0.00 50 1018.8
20260905162006 85 133 0.0 3.0 0.00 0.00 0.00 50 1018.8
20260905161505 85 284 1.0 4.0 0.00 0.00 0.00 49 1018.8
20260905161006 85 299 1.0 4.0 0.00 0.00 0.00 49 1018.8
20260905160505 85 319 1.0 2.0 0.00 0.00 0.00 49 1018.8
20260905160006 86 193 0.0 2.0 0.00 0.00 0.00 49 1018.8
20260905155505 86 186 1.0 2.0 0.00 0.00 0.00 48 1018.8
20260905155006 86 265 1.0 2.0 0.00 0.00 0.00 47 1018.8
20260905154505 86 223 1.0 2.0 0.00 0.00 0.00 46 1018.8
20260905154006 86 195 1.0 3.0 0.00 0.00 0.00 46 1018.8
20260905153005 86 261 0.0 3.0 0.00 0.00 0.00 45 1018.8
20260905152505 87 238 1.0 3.0 0.00 0.00 0.00 43 1018.8
20260905152005 87 236 3.0 4.0 0.00 0.00 0.00 43 1018.8
20260905151505 87 267 2.0 7.0 0.00 0.00 0.00 42 1018.8
20260905151005 87 289 3.0 7.0 0.00 0.00 0.00 39 1018.8
20260905150506 87 304 3.0 6.0 0.00 0.00 0.00 39 1018.8
20260905150005 88 312 3.0 9.0 0.00 0.00 0.00 39 1018.8
20260905145505 88 299 6.0 9.0 0.00 0.00 0.00 39 1017.7
20260905145005 88 285 5.0 7.0 0.00 0.00 0.00 39 1017.7
20260905144005 88 233 4.0 6.0 0.00 0.00 0.00 38 1017.7
20260905143505 88 205 3.0 6.0 0.00 0.00 0.00 38 1017.7
20260905143005 88 250 6.0 6.0 0.00 0.00 0.00 37 1017.7
20260905142506 88 278 3.0 6.0 0.00 0.00 0.00 38 1017.7
20260905142005 88 270 4.0 6.0 0.00 0.00 0.00 38 1017.7
20260905141506 88 271 3.0 6.0 0.00 0.00 0.00 38 1017.7
20260905141005 88 273 4.0 6.0 0.00 0.00 0.00 37 1018.8
20260905140505 88 275 5.0 7.0 0.00 0.00 0.00 37 1018.8
20260905140005 88 278 4.0 7.0 0.00 0.00 0.00 37 1018.8
20260905135505 88 270 3.0 6.0 0.00 0.00 0.00 36 1018.8
20260905134505 88 284 3.0 5.0 0.00 0.00 0.00 36 1018.8
20260905133505 88 279 4.0 8.0 0.00 0.00 0.00 36 1018.8
20260905133005 88 277 2.0 8.0 0.00 0.00 0.00 36 1018.8
20260905132505 88 283 3.0 9.0 0.00 0.00 0.00 35 1018.8
20260905132005 88 293 6.0 9.0 0.00 0.00 0.00 36 1018.8
20260905131505 88 281 6.0 9.0 0.00 0.00 0.00 36 1018.8
20260905131005 89 273 4.0 9.0 0.00 0.00 0.00 36 1018.8
20260905130506 89 282 2.0 9.0 0.00 0.00 0.00 36 1018.8
20260905130005 89 288 0.0 6.0 0.00 0.00 0.00 36 1018.8
20260905125505 89 283 4.0 7.0 0.00 0.00 0.00 36 1018.8
20260905125005 89 284 4.0 7.0 0.00 0.00 0.00 36 1018.8
20260905124505 89 291 1.0 4.0 0.00 0.00 0.00 36 1018.8
20260905124005 89 277 2.0 4.0 0.00 0.00 0.00 36 1019.8
20260905123005 89 276 3.0 9.0 0.00 0.00 0.00 36 1019.8
20260905122505 88 276 3.0 10.0 0.00 0.00 0.00 37 1019.8
20260905122005 88 276 8.0 10.0 0.00 0.00 0.00 37 1019.8
20260905121505 88 284 1.0 6.0 0.00 0.00 0.00 37 1019.8
20260905121006 88 276 2.0 7.0 0.00 0.00 0.00 38 1019.8
20260905120505 88 275 6.0 8.0 0.00 0.00 0.00 37 1019.8
20260905120005 88 274 6.0 8.0 0.00 0.00 0.00 38 1019.8
20260905115505 88 279 2.0 6.0 0.00 0.00 0.00 39 1019.8
20260905115006 88 289 4.0 9.0 0.00 0.00 0.00 39 1019.8
20260905114506 88 295 4.0 9.0 0.00 0.00 0.00 38 1019.8
20260905114005 87 305 4.0 6.0 0.00 0.00 0.00 39 1019.8
20260905113006 87 308 3.0 6.0 0.00 0.00 0.00 35 1019.8
20260905112505 87 311 4.0 5.0 0.00 0.00 0.00 39 1019.8
20260905112005 87 287 4.0 5.0 0.00 0.00 0.00 43 1019.8
20260905111505 87 285 2.0 5.0 0.00 0.00 0.00 42 1019.8
20260905110505 86 183 2.0 4.0 0.00 0.00 0.00 47 1019.8
20260905110005 85 218 2.0 4.0 0.00 0.00 0.00 46 1019.8
20260905105505 85 313 1.0 4.0 0.00 0.00 0.00 50 1019.8
20260905105006 84 247 3.0 4.0 0.00 0.00 0.00 51 1019.8
20260905104505 84 160 0.0 4.0 0.00 0.00 0.00 53 1019.8
20260905104005 83 164 1.0 4.0 0.00 0.00 0.00 52 1018.8
20260905103505 83 150 3.0 4.0 0.00 0.00 0.00 53 1018.8
20260905103006 82 57 1.0 3.0 0.00 0.00 0.00 55 1018.8
20260905102505 82 50 2.0 3.0 0.00 0.00 0.00 56 1019.8
20260905102005 81 63 2.0 3.0 0.00 0.00 0.00 56 1019.8
20260905101005 81 129 2.0 4.0 0.00 0.00 0.00 57 1018.8
20260905100505 80 148 2.0 3.0 0.00 0.00 0.00 59 1018.8
20260905100005 80 139 1.0 2.0 0.00 0.00 0.00 59 1018.8
20260905095505 80 115 2.0 2.0 0.00 0.00 0.00 60 1019.8
20260905095005 80 119 1.0 2.0 0.00 0.00 0.00 60 1019.8
20260905094504 80 158 0.0 2.0 0.00 0.00 0.00 60 1019.8
20260905093505 79 158 0.0 2.0 0.00 0.00 0.00 60 1018.8
20260905093005 79 156 1.0 3.0 0.00 0.00 0.00 60 1018.8
20260905092005 79 154 2.0 3.0 0.00 0.00 0.00 61 1019.8
20260905091505 78 156 2.0 3.0 0.00 0.00 0.00 62 1019.8
20260905091005 78 137 2.0 3.0 0.00 0.00 0.00 62 1019.8
20260905090504 78 106 2.0 2.0 0.00 0.00 0.00 62 1019.8
20260905090006 78 74 2.0 2.0 0.00 0.00 0.00 62 1019.8
20260905085506 77 41 1.0 2.0 0.00 0.00 0.00 62 1019.8
20260905085005 77 49 1.0 3.0 0.00 0.00 0.00 62 1019.8
20260905084505 77 63 2.0 3.0 0.00 0.00 0.00 62 1019.8
20260905084005 77 83 2.0 3.0 0.00 0.00 0.00 63 1019.8
20260905083505 77 120 2.0 2.0 0.00 0.00 0.00 64 1019.8
20260905083005 76 154 1.0 2.0 0.00 0.00 0.00 64 1019.8
20260905082505 76 181 1.0 4.0 0.00 0.00 0.00 65 1018.8
20260905081505 76 211 2.0 3.0 0.00 0.00 0.00 65 1018.8
20260905081005 75 282 1.0 3.0 0.00 0.00 0.00 68 1019.8
20260905080505 75 306 2.0 3.0 0.00 0.00 0.00 72 1019.8
20260905080005 74 3 2.0 3.0 0.00 0.00 0.00 72 1019.8
20260905075505 74 86 0.0 3.0 0.00 0.00 0.00 73 1019.8
20260905074505 73 108 2.0 4.0 0.00 0.00 0.00 75 1019.8
20260905074005 72 94 1.0 3.0 0.00 0.00 0.00 75 1019.8
20260905073505 72 101 0.0 4.0 0.00 0.00 0.00 78 1019.8
20260905073005 71 117 2.0 4.0 0.00 0.00 0.00 80 1019.8
20260905072505 71 97 1.0 2.0 0.00 0.00 0.00 80 1019.8
20260905072005 70 85 0.0 2.0 0.00 0.00 0.00 80 1019.8
20260905071005 69 151 1.0 2.0 0.00 0.00 0.00 82 1019.8
20260905070504 69 125 2.0 2.0 0.00 0.00 0.00 82 1019.8
20260905070005 68 101 1.0 2.0 0.00 0.00 0.00 84 1019.8